EW2549 Weather Reports


Display with metric or nautical units.
time (UTC)temp
F
wind
direction
speed
MPH
gust
MPH
rain 1hr
in
rain 24hr
in
rain mn
in
humidity
%
barometer
mb
20260505003038 58 342 0.0 0.0 0.00 0.03 0.03 47 1001.8
20260505001540 58 342 0.0 0.0 0.00 0.03 0.03 47 1001.8
20260505000044 58 346 0.0 0.0 0.00 0.03 0.03 47 1001.5
20260504234546 59 331 0.0 0.0 0.00 0.03 0.03 46 1001.4
20260504233138 59 15 0.0 0.0 0.00 0.03 0.03 46 1001.2
20260504231537 59 310 0.0 0.0 0.00 0.03 0.03 48 1001.1
20260504230036 58 338 0.0 11.0 0.00 0.03 0.03 46 1000.9
20260504224534 59 327 2.0 11.0 0.00 0.03 0.03 46 1000.9
20260504223039 59 316 0.0 6.0 0.00 0.03 0.03 46 1001.1
20260504221535 60 333 4.0 9.0 0.00 0.03 0.03 43 1000.8
20260504220033 61 355 1.0 11.0 0.00 0.03 0.03 39 1000.4
20260504214532 63 59 0.0 13.0 0.00 0.03 0.03 36 999.8
20260504213053 65 24 0.0 8.0 0.00 0.03 0.03 35 999.6
20260504211532 65 103 0.0 0.0 0.00 0.03 0.03 34 999.3
20260504210031 64 91 0.0 0.0 0.00 0.03 0.03 37 999.3
20260504204531 63 83 0.0 4.0 0.00 0.03 0.03 39 999.5
20260504203034 61 109 0.0 0.0 0.00 0.03 0.03 41 999.8
20260504201533 60 184 0.0 0.0 0.03 0.03 0.03 45 1000.3
20260504200030 59 116 2.0 7.0 0.03 0.03 0.03 48 1000.7
20260504194528 57 121 0.0 15.0 0.03 0.03 0.03 54 1000.3
20260504193030 60 207 2.0 11.0 0.03 0.03 0.03 50 1000.3
20260504191526 67 185 6.0 14.0 0.00 0.00 0.00 26 1000.1
20260504190027 69 220 0.0 0.0 0.00 0.00 0.00 21 999.3
20260504184524 69 244 1.0 8.0 0.00 0.00 0.00 20 999.2
20260504183025 69 328 0.0 9.0 0.00 0.00 0.00 22 999.2
20260504181523 69 349 0.0 0.0 0.00 0.00 0.00 23 999.2
20260504180020 69 306 0.0 7.0 0.00 0.00 0.00 24 999.6
20260504174518 70 272 1.0 11.0 0.00 0.00 0.00 22 999.7
20260504173026 71 311 5.0 14.0 0.00 0.00 0.00 23 1000.1
20260504171519 70 337 1.0 12.0 0.00 0.00 0.00 23 1000.2
20260504081501 48 327 0.0 0.0 0.00 0.00 0.00 42 1001.9
20260504044538 60 262 0.0 6.0 0.00 0.00 0.00 27 1002.7
20260504043033 60 248 0.0 6.0 0.00 0.00 0.00 27 1002.8
20260504041528 60 234 0.0 0.0 0.00 0.00 0.00 28 1002.9
20260504040029 61 235 0.0 0.0 0.00 0.00 0.00 28 1003.3
20260504033036 61 251 6.0 12.0 0.00 0.00 0.00 28 1003.3
20260504031526 60 224 0.0 0.0 0.00 0.00 0.00 29 1003.3
20260504030025 61 224 0.0 0.0 0.00 0.00 0.00 29 1003.3
20260504024524 61 200 0.0 0.0 0.00 0.00 0.00 29 1003.2
20260504023024 61 198 0.0 0.0 0.00 0.00 0.00 30 1003.3
20260504021532 62 244 2.0 7.0 0.00 0.00 0.00 29 1003.3
20260504020026 62 182 0.0 0.0 0.00 0.00 0.00 29 1003.1
20260504014523 64 31 0.0 0.0 0.00 0.00 0.00 27 1002.9
20260504013032 65 31 0.0 0.0 0.00 0.00 0.00 27 1002.8
20260504011522 65 31 0.0 0.0 0.00 0.00 0.00 27 1002.8
20260504010021 65 350 0.0 0.0 0.00 0.00 0.00 26 1002.8
20260504004521 65 37 0.0 0.0 0.00 0.00 0.00 25 1002.9